Regional Weather Roundup
Issued by NWS Midland/Odessa, TX

Home | Current Version | Previous Version | Text Only | Print | Product List | Glossary On
Versions: 1 2 3 4 5 6 7 8 9 10 11 12 13 14 15 16 17 18 19 20 21 22 23 24 25 26 27 28 29 30 31 32 33 34 35 36 37 38 39 40 41 42 43 44 45 46 47 48 49 50
000
ASUS44 KMAF 221310
RWRMAF
MIDLAND AREA WEATHER ROUNDUP
NATIONAL WEATHER SERVICE MIDLAND TX
700 AM CST THU FEB 22 2018

...IN SOUTHWEST TEXAS AND SOUTHEAST NEW MEXICO...

CITY           SKY/WX    TMP DP  RH WIND       PRES   REMARKS
ALPINE         FAIR      23  20  88 CALM      30.18R
ANDREWS        CLOUDY    28  28 100 E5        30.18R FOG     WCI  23
ARTESIA        CLOUDY    25  25 100 CALM      30.17R
BIG SPRING     CLOUDY    28  27  96 N5        30.23S WCI  23
CARLSBAD       CLOUDY    26  25  96 SE7       30.16R WCI  18
DRYDEN           N/A     37  30  75 NE9       30.18R WCI  30
FORT STOCKTON  CLOUDY    29  28  96 E3        30.19S FOG
GUAD PASS      FAIR      30  19  63 E12       30.10R WCI  20
HOBBS          CLOUDY    28  27  93 CALM      30.15R FOG
LAMESA         CLOUDY    28  27  93 E8        30.18S WCI  20
MARFA          FAIR      24  22  91 N5        30.13R WCI  18
MIDLAND AIRPK    N/A     30  30 100 E8        30.20S FOG     WCI  23
MIDLAND INTL   CLOUDY    30  27  88 E9        30.18S FOG     WCI  22
ODESSA         CLOUDY    29  27  92 E7        30.19R FOG     WCI  22
PECOS          CLOUDY    31  25  79 CALM      30.21R
PRESIDIO       FAIR      43  29  58 CALM      30.15R
SEMINOLE       CLOUDY    28  28 100 E8        30.17S FOG     WCI  20
SNYDER         MIX PCPN  27  27  99 N7        30.23S WCI  19
WINK           CLOUDY    30  29  96 SE5       30.18S FOG     WCI  25
$$
...OTHER STATIONS IN TEXAS...

CITY           SKY/WX    TMP DP  RH WIND       PRES   REMARKS
ABILENE        CLOUDY    26  26 100 N7        30.23S FOG     WCI  18
AMARILLO       CLOUDY    24  12  60 NE5       30.17F WCI  18
AUSTIN         DRIZZLE   37  37 100 N9        30.25R FOG     WCI  30
BROWNSVILLE    CLOUDY    53  52  96 NW12      30.15R
CORPUS CHRISTI DRIZZLE   50  50 100 N10       30.17R FOG
DALLAS FTW     DRZL/FOG  36  34  92 N9        30.26S VSB 1   WCI  29
DEL RIO        CLOUDY    40  38  93 NW6       30.21R WCI  36
EL PASO        FAIR      37  24  59 CALM      30.06R
HOUSTON INT    FOG       55  55 100 N7        30.20R VSB 1/2
LUBBOCK        CLOUDY    27  25  92 NE6       30.14F WCI  20
SAN ANGELO     CLOUDY    31  28  89 NE6       30.23S FOG     WCI  25
SAN ANTONIO    LGT RAIN  41  39  93 NE6       30.21R FOG     WCI  37
WACO           CLOUDY    34  33  96 N10       30.26S FOG     WCI  26
WICHITA FALLS  CLOUDY    28  27  96 E6        30.32S WCI  22
$$
...OTHER LOCATIONS IN NEW MEXICO...

CITY           SKY/WX    TMP DP  RH WIND       PRES   REMARKS
ALAMOGORDO     FAIR      32  21  64 W6        30.07R WCI  26
ALBUQUERQUE    CLOUDY    32  20  61 N10       30.01R WCI  24
CANNON AFB     FAIR      19  18  99 CALM      30.14S
CLOVIS         NOT AVBL
HOLLOMAN AFB   FAIR      33  20  60 S6        30.09R WCI  27
ROSWELL        FAIR      25  20  81 CALM      30.14F
RUIDOSO        FAIR      21  12  68 E3        30.05F
SANTA FE       CLOUDY    26  15  63 SE16      30.00R WCI  14
TRUTH OR CONSE   N/A     41  27  57 S12       30.02R WCI  34
TUCUMCARI      FAIR      22   8  55 CALM      30.12F
$$




USA.gov is the U.S. government's official web portal to all federal, state and local government web resources and services.